Weather History for KRFI - July, 2013

Change the Weather History Date:

Monday, July 15, 2013

  Actual Average (KGGG) Record (KGGG)
Temperature  
Mean Temperature 78 °F 84 °F  
Max Temperature 86 °F 93 °F 108 °F (1939)
Min Temperature 70 °F 74 °F 57 °F (1903)
Degree Days  
Heating Degree Days 0 0  
Month to date heating degree days 0  
Since 1 June heating degree days 0  
Since 1 July heating degree days 0  
Cooling Degree Days 13 19  
Month to date cooling degree days 272  
Year to date cooling degree days 1090  
Since 1 June cooling degree days 711  
Growing Degree Days 28 (Base 50)    
Moisture  
Dew Point 68 °F    
Average Humidity 74    
Maximum Humidity 95    
Minimum Humidity 49    
Precipitation  
Precipitation 0.77 in 0.09 in 1.63 in (1994)
Month to date precipitation 1.71  
Year to date precipitation 26.45  
Snow  
Snow 0.00 in - - ()
Month to date snowfall  
Since 1 June snowfall  
Since 1 July snowfall  
Snow Depth -    
Sea Level Pressure  
Sea Level Pressure 30.06 in    
Wind  
Wind Speed 4 mph (East)    
Max Wind Speed 12 mph    
Max Gust Speed 20 mph    
Visibility 9 miles    
Events Rain    
T = Trace of Precipitation, MM = Missing Value Source: NWS Daily Summary

Daily Weather History Graph

Daily Weather History Graph

Search for Another Location

Airport or City:

Trip Planner

Search our weather history database for the weather conditions in past years. The results will help you decide how hot, cold, wet, or windy it might be!

Date:

Astronomy

Jul. 15, 2013 Rise Set
Actual Time 6:23 AM CDT 8:26 PM CDT
Civil Twilight 5:56 AM CDT 8:54 PM CDT
Nautical Twilight 5:22 AM CDT 9:27 PM CDT
Astronomical Twilight 4:46 AM CDT 10:03 PM CDT
Moon 1:15 PM CDT (7/15) 12:06 AM CDT (7/15)
Length of Visible Light 14h 58m
Length of Day
14h 02m
Waxing Crescent, 45% of the Moon is Illuminated
Jul 15
Waxing Crescent
Jul 15
First Quarter
Jul 22
Full
Jul 29
Last Quarter
Aug 6
New

Hourly Weather History & Observations

Time (CDT) Temp. Heat Index Dew Point Humidity Pressure Visibility Wind Dir Wind Speed Gust Speed Precip Events Conditions
12:15 AM 71.1 °F - 68.5 °F 92% 29.98 in 4.0 mi Calm Calm - 0.01 in Rain Rain
12:35 AM 71.1 °F - 68.9 °F 93% 29.98 in 4.0 mi WSW 3.5 mph - 0.02 in Rain Rain
12:55 AM 71.2 °F - 69.1 °F 93% 29.99 in 3.0 mi WSW 5.8 mph - 0.04 in Rain Heavy Rain
1:15 AM 71.1 °F - 69.1 °F 93% 29.99 in 4.0 mi SSW 4.6 mph - 0.01 in Rain Heavy Rain
1:35 AM 70.7 °F - 68.7 °F 93% 29.99 in 4.0 mi SSE 10.4 mph - 0.02 in Rain Heavy Rain
7:35 AM - - - N/A% 30.06 in - North - - N/A   Unknown
7:55 AM 70.2 °F - 68.7 °F 95% 30.07 in 5.0 mi Calm Calm - 0.01 in Rain Light Rain
8:15 AM 70.3 °F - 68.9 °F 95% 30.07 in 7.0 mi Calm Calm - 0.01 in   Light Drizzle
8:35 AM 70.3 °F - 68.9 °F 95% 30.08 in 10.0 mi Calm Calm - 0.02 in   Overcast
8:55 AM 70.5 °F - 68.9 °F 95% 30.08 in 10.0 mi Calm Calm - 0.03 in   Scattered Clouds
9:15 AM 70.7 °F - 68.9 °F 94% 30.08 in 10.0 mi NE 3.5 mph - 0.01 in Rain Light Rain
9:35 AM 71.6 °F - 69.8 °F 94% 30.08 in 10.0 mi NNE 3.5 mph - 0.03 in   Overcast
9:55 AM 71.6 °F - 69.8 °F 94% 30.08 in 10.0 mi NNE 5.8 mph - 0.04 in   Overcast
10:15 AM 71.6 °F - 69.4 °F 93% 30.09 in 10.0 mi ENE 4.6 mph - 0.01 in   Overcast
10:35 AM 71.6 °F - 69.6 °F 93% 30.09 in 10.0 mi NE 4.6 mph - 0.03 in   Overcast
10:55 AM 72.7 °F - 70.3 °F 92% 30.08 in 7.0 mi NE 3.5 mph - 0.04 in   Mostly Cloudy
11:15 AM 75.0 °F - 70.2 °F 85% 30.09 in 7.0 mi ENE 3.5 mph - 0.01 in   Mostly Cloudy
11:35 AM 75.6 °F - 69.8 °F 82% 30.08 in 7.0 mi NE 6.9 mph - 0.03 in   Overcast
11:55 AM 76.3 °F - 69.6 °F 80% 30.09 in 7.0 mi ENE 3.5 mph - 0.05 in   Mostly Cloudy
12:15 PM 76.6 °F - 68.7 °F 76% 30.09 in 10.0 mi North - - 0.02 in   Scattered Clouds
12:35 PM 77.7 °F - 68.5 °F 73% 30.09 in 10.0 mi North - - 0.04 in   Mostly Cloudy
12:55 PM 78.8 °F - 68.7 °F 71% 30.08 in 10.0 mi North - - 0.06 in   Scattered Clouds
1:15 PM 79.9 °F - 67.3 °F 65% 30.07 in 10.0 mi NNE 3.5 mph - 0.01 in   Scattered Clouds
1:35 PM 82.6 °F 84.9 °F 66.6 °F 58% 30.07 in 10.0 mi Calm Calm - 0.04 in   Clear
1:55 PM 84.2 °F 86.1 °F 65.5 °F 53% 30.07 in 10.0 mi SE 6.9 mph - 0.07 in   Clear
2:15 PM 84.9 °F 86.3 °F 64.6 °F 50% 30.07 in 10.0 mi East 8.1 mph - 0.03 in   Clear
2:35 PM 84.4 °F 86.3 °F 65.3 °F 53% 30.06 in 10.0 mi ESE 6.9 mph - 0.05 in   Clear
2:55 PM 86.0 °F 88.2 °F 65.8 °F 51% 30.05 in 10.0 mi ESE 5.8 mph - 0.08 in   Scattered Clouds
3:15 PM 85.3 °F 87.6 °F 66.4 °F 53% 30.05 in 10.0 mi ESE 8.1 mph - 0.03 in   Scattered Clouds
3:35 PM 84.6 °F 86.8 °F 66.4 °F 54% 30.04 in 10.0 mi ESE 3.5 mph - 0.06 in   Clear
3:55 PM 85.5 °F 88.2 °F 66.9 °F 54% 30.04 in 10.0 mi ESE 4.6 mph - 0.09 in   Clear
4:15 PM 84.6 °F 86.8 °F 66.2 °F 54% 30.03 in 10.0 mi ESE 11.5 mph 19.6 mph 0.03 in   Scattered Clouds
4:35 PM 83.3 °F 85.3 °F 65.7 °F 55% 30.04 in 10.0 mi ESE 10.4 mph - 0.05 in   Scattered Clouds
4:55 PM 83.3 °F 85.3 °F 65.5 °F 55% 30.04 in 10.0 mi ESE 5.8 mph - 0.08 in   Clear
5:15 PM 86.4 °F 88.1 °F 64.9 °F 49% 30.04 in 10.0 mi East 8.1 mph - 0.02 in   Clear
5:35 PM 85.8 °F 87.6 °F 65.3 °F 50% 30.04 in 10.0 mi ESE 10.4 mph - 0.04 in   Clear
5:55 PM 84.4 °F 86.3 °F 65.3 °F 53% 30.04 in 10.0 mi ESE 9.2 mph - 0.07 in   Clear
6:15 PM 83.5 °F 85.5 °F 65.8 °F 55% 30.05 in 10.0 mi SE 9.2 mph - 0.01 in   Clear
6:35 PM 82.8 °F 85.1 °F 66.7 °F 58% 30.05 in 10.0 mi ESE 8.1 mph - 0.03 in   Clear
6:55 PM 82.2 °F 84.7 °F 67.3 °F 60% 30.06 in 10.0 mi SE 10.4 mph - 0.05 in   Clear
7:15 PM 81.9 °F 84.8 °F 68.0 °F 63% 30.07 in 10.0 mi ESE 6.9 mph - 0.01 in   Clear
7:35 PM 81.1 °F 83.7 °F 67.3 °F 63% 30.08 in 10.0 mi ESE 6.9 mph - 0.02 in   Mostly Cloudy
10:15 PM 72.7 °F - 67.1 °F 83% 30.12 in 10.0 mi Calm Calm - 0.01 in   Clear
10:35 PM 72.7 °F - 67.3 °F 83% 30.12 in 10.0 mi Calm Calm - 0.01 in   Clear
10:55 PM 72.5 °F - 68.0 °F 86% 30.12 in 10.0 mi ENE 5.8 mph - 0.01 in   Clear
11:15 PM 73.4 °F - 68.0 °F 83% 30.12 in 10.0 mi East 5.8 mph - N/A   Clear
11:35 PM 74.8 °F - 67.6 °F 78% 30.12 in 10.0 mi ESE 3.5 mph - 0.01 in   Clear
11:55 PM 74.8 °F - 67.6 °F 78% 30.12 in 10.0 mi ESE 3.5 mph - 0.01 in   Clear